Location: Leedale
(52.5833°N, 114.4833°W)
Time: 14:08:31
(UTC+00:00)

Envisat - Pass Details

Date: 09 August 2024
Orbit: 762 x 764 km, 98.3° (Epoch: 08 September)

Event Time Altitude Azimuth Distance (km) Brightness Sun altitude
Rises 10:44:48 0° 17° (NNE) 3,242 7.5 -11.4°
Reaches altitude 10° 10:47:09 10° 21° (NNE) 2,311 6.6 -11.1°
Maximum altitude 10:52:12 61° 101° (ESE) 867 3.5 -10.6°
Drops below altitude 10° 10:57:12 10° 182° (S) 2,293 5.1 -10.0°
Enters shadow 10:58:37 - 185° (S) 2,853 5.5 -9.9°
